Terminal Aerodrome Forecast
Issued by NWS

Current Version | Previous Version | Text Only | Print | Product List | Glossary Off
Versions: 1 2 3 4 5 6 7 8 9 10 11 12 13 14 15 16 17 18 19 20 21 22 23 24 25 26 27 28 29 30

684
FTUS41 KPBZ 202326
TAFMGW
TAF
KMGW 202326Z 2100/2124 18006KT P6SM SCT250
     FM210500 19007KT P6SM BKN250 WS020/22045KT
     FM211400 21010G20KT P6SM VCSH BKN040
     FM211900 28010G20KT P6SM -SHRA OVC025
     FM212100 31010KT 5SM -SHRA OVC015=

USA.gov is the U.S. government's official web portal to all federal, state and local government web resources and services.